GW0552 Weather Reports


time (UTC)temp
F
wind
direction
speed
knots
gust
knots
rain 1hr
in
rain 24hr
in
rain mn
in
humidity
%
barometer
mb
20260905184521 85 249 3.5 4.3 0.00 0.01 0.01 70 1009.5
20260905184019 85 337 0.9 1.7 0.00 0.01 0.01 70 1009.7
20260905183514 85 290 2.6 2.6 0.00 0.01 0.01 72 1009.7
20260905183009 84 274 2.6 2.6 0.00 0.01 0.01 74 1009.9
20260905182503 84 283 4.3 5.2 0.00 0.01 0.01 73 1009.8
20260905181957 84 68 0.9 0.9 0.00 0.01 0.01 73 1010.1
20260905181452 84 184 2.6 4.3 0.00 0.01 0.01 72 1009.8
20260905180951 85 68 0.9 0.9 0.00 0.01 0.01 73 1009.8
20260905180446 84 19 2.6 2.6 0.00 0.01 0.01 74 1009.9
20260905175942 84 244 3.5 4.3 0.00 0.01 0.01 77 1009.9
20260905175441 84 114 0.0 0.9 0.00 0.01 0.01 77 1009.9
20260905174936 83 183 3.5 5.2 0.00 0.01 0.01 76 1010.0
20260905174432 83 163 2.6 4.3 0.00 0.01 0.01 77 1009.9
20260905173927 82 20 3.5 4.3 0.00 0.01 0.01 82 1009.9
20260905173424 82 56 2.6 2.6 0.00 0.01 0.01 80 1010.2
20260905172919 82 92 0.9 1.7 0.00 0.01 0.01 80 1010.4
20260905172417 82 239 4.3 5.2 0.00 0.01 0.01 82 1010.3
20260905171913 81 221 1.7 1.7 0.00 0.01 0.01 82 1010.5
20260905171409 81 221 3.5 5.2 0.00 0.01 0.01 83 1010.4
20260905170906 82 265 5.2 6.1 0.00 0.01 0.01 83 1010.5
20260905170401 82 64 0.9 0.9 0.00 0.01 0.01 82 1010.5
20260905165901 82 176 2.6 2.6 0.00 0.01 0.01 84 1010.4
20260905165355 82 37 2.6 5.2 0.00 0.01 0.01 82 1010.3
20260905164850 82 249 5.2 6.1 0.00 0.01 0.01 81 1010.7
20260905164345 82 249 5.2 6.1 0.00 0.01 0.01 81 1010.7
20260905163841 82 165 0.9 1.7 0.00 0.01 0.01 83 1010.5
20260905163337 82 359 2.6 4.3 0.00 0.01 0.01 82 1010.7
20260905162832 80 34 0.9 0.9 0.00 0.01 0.01 85 1010.7
20260905162326 80 65 1.7 1.7 0.00 0.01 0.01 85 1010.6
20260905161827 80 74 1.7 1.7 0.00 0.01 0.01 86 1010.3
20260905161327 79 67 0.0 0.0 0.00 0.01 0.01 87 1010.5
20260905160825 78 62 0.9 0.9 0.00 0.01 0.01 90 1010.5
20260905160319 78 62 0.9 0.9 0.00 0.01 0.01 90 1010.5
20260905155813 78 61 0.0 0.9 0.00 0.01 0.01 91 1010.3
20260905155307 77 60 0.0 0.0 0.00 0.01 0.01 91 1010.1
20260905154801 77 70 3.5 4.3 0.00 0.01 0.01 90 1010.2
20260905154257 77 86 2.6 2.6 0.00 0.01 0.01 91 1010.4
20260905153752 76 66 0.9 0.9 0.00 0.01 0.01 91 1010.4
20260905153248 76 55 1.7 1.7 0.00 0.01 0.01 91 1010.2
20260905152742 76 73 0.9 1.7 0.00 0.01 0.01 92 1010.7
20260905152237 76 18 2.6 2.6 0.00 0.01 0.01 92 1010.9
20260905151736 75 63 2.6 2.6 0.00 0.01 0.01 93 1010.2
20260905151232 75 85 3.5 4.3 0.00 0.01 0.01 94 1009.8
20260905150726 75 72 2.6 2.6 0.00 0.01 0.01 95 1010.3
20260905150225 75 66 0.9 0.9 0.00 0.01 0.01 95 1010.8
20260905145723 75 59 0.0 0.0 0.00 0.01 0.01 95 1011.2
20260905145218 75 62 1.7 1.7 0.00 0.01 0.01 94 1011.1
20260905144717 75 77 1.7 1.7 0.00 0.01 0.01 94 1011.1
20260905144212 75 70 0.9 1.7 0.00 0.01 0.01 95 1010.7
20260905143712 75 63 2.6 2.6 0.00 0.01 0.01 95 1010.8
20260905143212 75 62 0.0 0.0 0.00 0.01 0.01 97 1011.3
20260905142705 74 59 0.0 0.0 0.00 0.01 0.01 97 1011.6
20260905142205 74 64 0.0 0.0 0.00 0.01 0.01 97 1011.4
20260905141701 74 58 1.7 1.7 0.00 0.01 0.01 97 1010.9
20260905141156 74 65 0.9 0.9 0.00 0.01 0.01 96 1011.1
20260905140651 74 67 0.9 1.7 0.00 0.01 0.01 97 1011.0
20260905140145 74 67 0.9 0.9 0.00 0.01 0.01 96 1011.4
20260905135640 73 40 0.9 0.9 0.00 0.01 0.01 95 1011.3
20260905135136 74 149 0.0 0.9 0.00 0.01 0.01 95 1011.7
20260905134630 74 60 0.0 0.0 0.00 0.01 0.01 97 1011.6
20260905134129 74 2 1.7 1.7 0.00 0.01 0.01 95 1011.5
20260905133625 73 77 1.7 2.6 0.00 0.01 0.01 96 1011.9
20260905133125 73 44 1.7 1.7 0.00 0.01 0.01 98 1011.9
20260905132624 73 75 0.0 0.0 0.00 0.01 0.01 99 1011.8
20260905132119 73 17 0.0 0.0 0.00 0.01 0.01 99 1011.8
20260905131614 72 50 0.0 0.0 0.00 0.01 0.01 99 1012.1
20260905131110 72 71 0.9 0.9 0.00 0.01 0.01 99 1011.9
20260905130609 72 234 3.5 4.3 0.00 0.01 0.01 99 1012.0
20260905125603 73 61 0.0 0.0 0.00 0.01 0.01 99 1012.0
20260905125059 73 68 0.0 0.0 0.00 0.01 0.01 99 1011.9
20260905124555 73 33 0.9 0.9 0.00 0.01 0.01 99 1012.1
20260905124051 73 56 0.9 0.9 0.00 0.01 0.01 99 1011.9
20260905123546 73 125 2.6 2.6 0.00 0.01 0.01 99 1011.7
20260905123043 73 43 0.9 0.9 0.00 0.01 0.01 99 1011.8
20260905122543 73 40 0.9 0.9 0.00 0.01 0.01 99 1011.8
20260905122037 73 38 0.0 0.0 0.00 0.01 0.01 99 1011.7
20260905121532 73 214 3.5 5.2 0.00 0.01 0.01 99 1011.6
20260905121027 73 83 0.9 0.9 0.00 0.01 0.01 99 1011.6
20260905120526 73 260 1.7 1.7 0.00 0.01 0.01 99 1011.9
20260905120022 73 304 2.6 2.6 0.00 0.01 0.01 99 1011.6
20260905115520 73 48 0.0 0.0 0.00 0.01 0.01 99 1010.6
20260905115016 73 48 0.0 0.0 0.00 0.01 0.01 99 1010.3
20260905114515 73 41 0.0 0.0 0.00 0.01 0.01 99 1010.3
20260905114014 73 49 0.0 0.0 0.00 0.01 0.01 99 1010.4
20260905113509 73 58 0.9 1.7 0.00 0.01 0.01 99 1010.2
20260905113005 73 65 0.0 0.9 0.00 0.01 0.01 99 1009.9
20260905112500 73 294 3.5 4.3 0.00 0.01 0.01 99 1010.2
20260905111955 71 258 5.2 7.0 0.00 0.01 0.01 99 1010.0
20260905111450 71 50 0.0 0.0 0.00 0.01 0.01 99 1009.2
20260905110949 71 61 0.0 0.0 0.00 0.01 0.01 99 1009.0
20260905110449 71 64 0.0 0.0 0.00 0.01 0.01 99 1009.1
20260905105948 71 63 0.0 0.0 0.00 0.01 0.01 99 1008.9
20260905105443 71 63 0.0 0.0 0.00 0.01 0.01 99 1009.3
20260905104942 71 63 0.0 0.0 0.00 0.01 0.01 99 1009.1
20260905104439 71 66 0.0 0.0 0.00 0.01 0.01 99 1009.1
20260905103933 71 58 0.0 0.0 0.00 0.01 0.01 99 1009.1
20260905103428 71 66 0.0 0.9 0.00 0.01 0.01 99 1009.0
20260905102924 71 65 0.9 0.9 0.00 0.01 0.01 99 1008.9
20260905102420 71 63 1.7 1.7 0.00 0.01 0.01 99 1009.3
20260905101915 71 61 0.0 0.0 0.00 0.01 0.01 99 1009.1
20260905101414 71 66 0.0 0.0 0.00 0.01 0.01 99 1009.2
20260905100909 71 61 0.0 0.0 0.00 0.01 0.01 99 1009.2
20260905100405 71 53 0.0 0.0 0.00 0.01 0.01 99 1009.3
20260905095904 71 52 0.0 0.0 0.00 0.01 0.01 99 1009.3
20260905095358 71 52 0.0 0.0 0.00 0.01 0.01 99 1009.2
20260905094853 72 59 0.0 0.0 0.00 0.01 0.01 99 1008.9
20260905094349 72 78 1.7 1.7 0.07 0.01 0.01 99 1008.9
20260905093847 72 63 1.7 1.7 0.07 0.01 0.01 99 1008.8
20260905093343 72 77 3.5 4.3 0.07 0.01 0.01 99 1008.8
20260905092839 72 76 1.7 1.7 0.00 0.00 0.00 99 1009.2
20260905092338 72 61 1.7 1.7 0.00 0.00 0.00 99 1009.3
20260905091834 72 65 0.9 0.9 0.00 0.00 0.00 99 1009.3
20260905091333 72 70 0.9 1.7 0.00 0.00 0.00 99 1009.4
20260905090832 71 49 0.0 0.0 0.00 0.00 0.00 99 1009.8
20260905090323 71 51 0.0 0.0 0.00 0.00 0.00 99 1009.3
20260905085822 70 45 0.0 0.0 0.00 0.00 0.00 99 1009.3
20260905085316 70 37 0.0 0.0 0.00 0.00 0.00 99 1008.9
20260905084812 71 68 0.0 0.0 0.00 0.00 0.00 99 1009.1
20260905084311 70 55 0.0 0.0 0.00 0.00 0.00 99 1009.0
20260905083806 70 60 0.0 0.0 0.00 0.00 0.00 99 1009.2
20260905083302 70 60 0.0 0.0 0.00 0.00 0.00 99 1009.0
20260905082757 70 48 0.0 0.0 0.00 0.00 0.00 99 1009.0
20260905082254 71 65 0.0 0.0 0.00 0.00 0.00 99 1009.0
20260905081753 71 65 0.0 0.0 0.00 0.00 0.00 99 1008.8
20260905081249 70 61 0.0 0.0 0.00 0.00 0.00 99 1009.1
20260905080743 71 61 0.0 0.0 0.00 0.00 0.00 99 1008.9
20260905080243 71 61 0.0 0.0 0.00 0.00 0.00 99 1009.1
20260905075741 71 61 0.0 0.0 0.00 0.00 0.00 99 1009.2
20260905075241 71 62 0.0 0.0 0.00 0.00 0.00 99 1009.0
20260905074740 71 74 0.0 0.0 0.00 0.00 0.00 99 1009.1
20260905074236 71 65 0.0 0.0 0.00 0.00 0.00 99 1009.3
20260905073731 71 66 0.0 0.0 0.00 0.00 0.00 99 1009.2
20260905073227 71 65 0.0 0.0 0.00 0.00 0.00 99 1009.4
20260905072726 71 65 0.0 0.0 0.00 0.00 0.00 99 1009.4
20260905072221 71 60 0.0 0.0 0.00 0.00 0.00 99 1009.4
20260905071718 71 60 0.0 0.0 0.00 0.00 0.00 99 1009.5
20260905071214 71 60 0.0 0.0 0.00 0.00 0.00 99 1009.5
20260905070709 71 60 0.0 0.0 0.00 0.00 0.00 99 1009.8
20260905070205 71 60 0.0 0.0 0.00 0.00 0.00 99 1009.9
20260905065703 71 60 0.0 0.0 0.00 0.00 0.00 99 1009.8
20260905065157 71 65 0.0 0.0 0.00 0.00 0.00 99 1010.0
20260905064653 71 65 0.0 0.0 0.00 0.00 0.00 99 1010.1
20260905064149 71 66 0.0 0.0 0.00 0.00 0.00 99 1010.2
20260905063647 71 66 0.0 0.0 0.00 0.00 0.00 99 1010.1
20260905063143 71 64 0.0 0.0 0.00 0.00 0.00 99 1010.2
20260905062639 71 64 0.0 0.0 0.00 0.00 0.00 99 1010.5
20260905062138 71 66 0.0 0.0 0.00 0.00 0.00 99 1010.5
20260905061633 71 62 0.0 0.0 0.00 0.00 0.00 99 1010.6
20260905061132 71 55 0.0 0.0 0.00 0.00 0.00 99 1010.5
20260905060628 72 55 0.0 0.0 0.00 0.00 0.00 99 1010.5
20260905060124 72 62 0.0 0.0 0.00 0.00 0.00 99 1010.9
20260905055622 72 64 0.0 0.0 0.00 0.00 0.00 99 1010.7
20260905055118 72 64 0.0 0.0 0.00 0.00 0.00 99 1010.9
20260905054614 72 75 0.9 0.9 0.00 0.00 0.00 99 1010.9
20260905054109 72 70 0.9 0.9 0.00 0.00 0.00 99 1010.8
20260905053608 72 79 1.7 1.7 0.00 0.00 0.00 99 1011.0
20260905053104 72 76 0.9 1.7 0.00 0.00 0.00 99 1011.2
20260905052603 72 59 0.0 0.0 0.00 0.00 0.00 99 1011.2
20260905052058 72 59 0.0 0.0 0.00 0.00 0.00 99 1011.3
20260905051554 72 58 0.0 0.0 0.00 0.00 0.00 99 1011.3
20260905051050 72 59 0.0 0.0 0.00 0.00 0.00 99 1011.3
20260905050546 72 59 0.0 0.0 0.00 0.00 0.00 99 1011.2
20260905050043 72 59 0.0 0.0 0.00 0.00 0.00 99 1011.4
20260905045537 72 59 0.0 0.0 0.00 0.00 0.00 99 1011.2
20260905045033 72 59 0.0 0.0 0.00 0.00 0.00 99 1011.5
20260905044532 72 59 0.0 0.0 0.00 0.00 0.00 99 1011.3
20260905044027 72 65 0.0 0.0 0.00 0.00 0.00 99 1011.3
20260905043526 72 65 0.0 0.0 0.00 0.00 0.00 99 1011.5
20260905043022 73 65 0.0 0.0 0.00 0.00 0.00 99 1011.4
20260905042520 72 65 0.0 0.0 0.00 0.00 0.00 99 1011.3
20260905042016 73 65 0.0 0.0 0.00 0.00 0.00 99 1011.3
20260905041511 73 65 0.0 0.0 0.00 0.00 0.00 99 1011.3
20260905041007 73 65 0.0 0.0 0.00 0.00 0.00 99 1011.3
20260905040506 73 65 0.0 0.0 0.00 0.00 0.00 99 1011.1
20260905040005 73 65 0.0 0.0 0.00 0.00 0.00 99 1011.2
20260905035500 73 65 0.0 0.0 0.00 0.00 0.00 99 1011.2
20260905034957 73 66 0.0 0.0 0.00 0.00 0.00 99 1010.9
20260905034458 73 63 0.0 0.0 0.00 0.00 0.00 99 1011.0
20260905033956 73 63 0.0 0.0 0.00 0.00 0.00 99 1011.0
20260905033451 73 62 0.0 0.0 0.00 0.00 0.00 99 1011.1
20260905032946 73 68 0.0 0.0 0.00 0.00 0.00 99 1010.9
20260905032442 73 68 0.0 0.0 0.00 0.00 0.00 99 1010.8
20260905031936 73 67 0.0 0.0 0.00 0.00 0.00 99 1011.0
20260905031432 73 68 0.0 0.0 0.00 0.00 0.00 99 1010.9
20260905030927 73 64 0.0 0.0 0.00 0.00 0.00 99 1011.2
20260905030423 74 64 0.0 0.0 0.00 0.00 0.00 99 1011.2
20260905025921 73 64 0.0 0.0 0.00 0.00 0.00 98 1011.0
20260905025417 74 64 0.0 0.0 0.00 0.00 0.00 99 1011.1
20260905024914 74 64 0.0 0.0 0.00 0.00 0.00 99 1011.2
20260905024408 74 64 0.0 0.0 0.00 0.00 0.00 99 1011.1
20260905023904 74 64 0.0 0.0 0.00 0.00 0.00 99 1011.1
20260905023359 74 64 0.0 0.0 0.00 0.00 0.00 98 1010.9
20260905022857 74 64 0.0 0.0 0.00 0.00 0.00 98 1010.8
20260905022348 74 63 0.0 0.0 0.00 0.00 0.00 98 1011.0
20260905021848 74 64 0.0 0.0 0.00 0.00 0.00 98 1011.2
20260905021343 75 69 0.0 0.0 0.00 0.00 0.00 99 1011.4
20260905020838 75 67 0.0 0.0 0.00 0.00 0.00 99 1011.2
20260905020333 75 58 0.0 0.0 0.00 0.00 0.00 98 1011.3
20260905015832 75 61 0.0 0.0 0.00 0.00 0.00 98 1011.3
20260905015331 75 66 0.0 0.0 0.00 0.00 0.00 98 1011.1
20260905014831 75 56 0.0 0.0 0.00 0.00 0.00 98 1011.2
20260905014327 75 55 0.0 0.0 0.00 0.00 0.00 98 1011.0
20260905013821 75 54 0.0 0.0 0.00 0.00 0.00 98 1011.0
20260905013318 75 27 0.0 0.0 0.00 0.00 0.00 98 1011.1
20260905012813 75 63 0.0 0.0 0.00 0.00 0.00 97 1011.0
20260905012309 75 64 0.0 0.0 0.00 0.00 0.00 97 1010.8
20260905011805 76 64 0.0 0.0 0.00 0.00 0.00 97 1010.7
20260905011300 76 63 0.0 0.0 0.00 0.00 0.00 96 1011.0
20260905010754 76 62 0.0 0.0 0.00 0.00 0.00 95 1010.8
20260905010250 76 63 0.0 0.0 0.00 0.00 0.00 95 1010.6
20260905005747 76 63 0.0 0.0 0.00 0.00 0.00 96 1010.5
20260905005242 76 59 0.0 0.0 0.00 0.00 0.00 96 1010.5
20260905004742 76 46 0.0 0.0 0.00 0.00 0.00 95 1010.6
20260905004242 76 46 0.0 0.0 0.00 0.00 0.00 96 1010.8
20260905003742 76 37 0.0 0.0 0.00 0.00 0.00 96 1010.5
20260905003237 77 37 0.0 0.0 0.00 0.00 0.00 96 1010.3
20260905002733 77 33 0.0 0.0 0.00 0.00 0.00 95 1010.0
20260905002228 77 35 0.0 0.0 0.00 0.00 0.00 94 1009.3
20260905001723 77 48 0.0 0.0 0.00 0.00 0.00 93 1009.3
20260905001222 77 47 0.0 0.0 0.00 0.00 0.00 93 1009.2
20260905000718 78 48 0.0 0.0 0.00 0.00 0.00 91 1009.2
20260905000213 78 47 0.0 0.0 0.00 0.00 0.00 92 1009.1
20260904235708 79 46 0.0 0.0 0.00 0.00 0.00 92 1008.9
20260904235203 80 48 0.0 0.0 0.00 0.00 0.00 91 1009.1
20260904234657 80 66 0.0 0.0 0.00 0.00 0.00 89 1009.1
20260904234153 79 70 0.9 0.9 0.00 0.00 0.00 89 1009.3
20260904233649 79 69 0.0 0.9 0.00 0.00 0.00 89 1009.1
20260904233144 79 67 2.6 2.6 0.00 0.00 0.00 90 1008.9
20260904232641 79 66 0.0 0.9 0.00 0.00 0.00 89 1009.3
20260904232137 79 88 1.7 1.7 0.00 0.00 0.00 89 1009.3
20260904231632 79 83 1.7 1.7 0.00 0.00 0.00 89 1009.5
20260904231127 79 70 0.0 0.0 0.00 0.00 0.00 87 1009.5
20260904230626 79 54 0.0 0.0 0.00 0.00 0.00 86 1010.0
20260904230122 80 75 0.9 0.9 0.00 0.00 0.00 87 1009.8
20260904225619 80 68 0.0 0.0 0.00 0.00 0.00 84 1010.0
20260904225115 81 28 0.9 0.9 0.00 0.00 0.00 86 1010.2
20260904224609 82 75 0.0 0.0 0.00 0.00 0.00 81 1010.6
20260904224104 82 57 0.0 0.0 0.00 0.00 0.00 82 1010.5
20260904223603 82 34 0.9 0.9 0.00 0.00 0.00 82 1010.5
20260904223059 83 23 1.7 1.7 0.00 0.00 0.00 80 1010.8
20260904222554 83 57 2.6 2.6 0.00 0.00 0.00 75 1010.6
20260904222050 84 75 2.6 2.6 0.00 0.00 0.00 74 1010.8
20260904221550 83 79 1.7 1.7 0.00 0.00 0.00 74 1010.9
20260904221044 83 79 1.7 1.7 0.00 0.00 0.00 74 1011.2
20260904220543 83 76 2.6 4.3 0.00 0.00 0.00 74 1011.1
20260904220039 82 86 4.3 5.2 0.00 0.00 0.00 74 1011.2
20260904215534 82 73 0.9 0.9 0.00 0.00 0.00 77 1011.5
20260904215030 81 78 0.0 0.0 0.00 0.00 0.00 77 1011.1
20260904214525 80 49 0.0 0.0 0.00 0.00 0.00 80 1011.4
20260904214021 80 35 0.9 1.7 0.00 0.00 0.00 81 1011.5
20260904213518 81 245 2.6 2.6 0.00 0.00 0.00 82 1011.5
20260904213015 81 35 0.9 0.9 0.00 0.00 0.00 77 1011.4
20260904212514 80 68 0.0 0.0 0.00 0.00 0.00 80 1011.5
20260904212009 79 61 0.0 0.0 0.00 0.00 0.00 81 1011.6
20260904211504 79 188 2.6 2.6 0.00 0.00 0.00 82 1011.4
20260904211000 81 196 3.5 4.3 0.00 0.00 0.00 78 1011.4
20260904210459 81 76 0.0 0.0 0.00 0.00 0.00 75 1011.8
20260904205955 82 72 2.6 4.3 0.00 0.00 0.00 80 1012.1
20260904205450 83 320 4.3 5.2 0.00 0.00 0.00 78 1012.2
20260904204947 84 12 1.7 1.7 0.00 0.00 0.00 78 1012.0
20260904204443 84 358 2.6 2.6 0.00 0.00 0.00 78 1012.1
20260904203938 85 45 0.9 1.7 0.00 0.00 0.00 75 1011.4
20260904203435 85 52 0.0 0.9 0.00 0.00 0.00 75 1011.3
20260904202930 85 76 2.6 4.3 0.00 0.00 0.00 74 1011.3
20260904202426 85 68 2.6 4.3 0.00 0.00 0.00 75 1011.0
20260904201922 86 63 2.6 2.6 0.00 0.00 0.00 75 1011.2
20260904201417 86 76 1.7 1.7 0.00 0.00 0.00 78 1010.9
20260904200913 87 75 0.9 0.9 0.00 0.00 0.00 74 1011.0
20260904200411 87 83 0.9 1.7 0.00 0.00 0.00 75 1011.2
20260904195906 88 78 2.6 2.6 0.00 0.00 0.00 70 1011.3
20260904195404 88 62 0.0 0.0 0.00 0.00 0.00 67 1011.3
20260904194859 88 51 0.0 0.0 0.00 0.00 0.00 68 1011.7
20260904194358 88 76 0.9 0.9 0.00 0.00 0.00 68 1011.6
20260904193854 88 58 0.0 0.0 0.00 0.00 0.00 70 1011.6
20260904193349 88 69 1.7 1.7 0.00 0.00 0.00 69 1011.5
20260904192844 89 103 2.6 2.6 0.00 0.00 0.00 68 1011.1
20260904192339 90 85 2.6 5.2 0.00 0.00 0.00 68 1011.2
20260904191836 90 51 6.1 7.0 0.00 0.00 0.00 65 1011.2
20260904191332 91 74 4.3 7.8 0.00 0.00 0.00 68 1011.0
20260904190828 90 71 2.6 4.3 0.00 0.00 0.00 70 1010.9
20260904190324 89 87 3.5 6.1 0.00 0.00 0.00 68 1010.9
20260904185820 89 84 4.3 6.1 0.00 0.00 0.00 67 1011.3
20260904185316 90 70 4.3 7.0 0.00 0.00 0.00 67 1011.3
20260904184815 89 92 6.1 7.0 0.00 0.00 0.00 67 1011.3